CES531 ZBTJ-RCTP

Flight info

Callsign CES531
Flight time N/A
Altitude 37100
Route K0861S1190 ELKUR8W ELKUR W40 YQG/K0861S1220 W142 DALIM/K0863S1190 A593 VMB W161 SASAN W167 SUF/K0859S1250 W583 JTN/K0865S1220 G204 AND B221 DST/K0857S1250 R596 SULEM/N0466F400 R596 BERBA B576 BAKER BAKER1A
Aircraft A343/H-SDE2E3FGHIJ4J5M1RWXY/LB1D1

Departure

Time 2026-04-26 14:28
Airport Tianjin Binhai International Airport (ZBTJ)

Arrival

Time N/A
Airport Taiwan Taoyuan International Airport (RCTP)
Time Latitude Longitude Altitude Speed Heading
2026-04-26 14:05 39.12884 117.34993 23 ft 0 kts 54°
2026-04-26 14:16 39.12881 117.34988 26 ft 4 kts 54°
2026-04-26 14:16 39.12866 117.34960 24 ft 4 kts 54°
2026-04-26 14:16 39.12852 117.34936 26 ft 4 kts 42°
2026-04-26 14:17 39.12833 117.34923 26 ft 4 kts 339°
2026-04-26 14:17 39.12815 117.34944 26 ft 4 kts 296°
2026-04-26 14:17 39.12805 117.34976 27 ft 3 kts 292°
2026-04-26 14:17 39.12803 117.34981 26 ft 0 kts 292°
2026-04-26 14:20 39.12805 117.34976 27 ft 1 kts 292°
2026-04-26 14:21 39.12811 117.34957 27 ft 3 kts 292°
2026-04-26 14:21 39.12817 117.34926 26 ft 4 kts 278°
2026-04-26 14:21 39.12807 117.34878 25 ft 7 kts 246°
2026-04-26 14:21 39.12782 117.34812 28 ft 8 kts 249°
2026-04-26 14:22 39.12793 117.34788 26 ft 3 kts 319°
2026-04-26 14:22 39.12821 117.34765 26 ft 6 kts 331°
2026-04-26 14:22 39.12869 117.34735 23 ft 9 kts 334°
2026-04-26 14:22 39.12934 117.34695 23 ft 11 kts 335°
2026-04-26 14:23 39.13014 117.34647 24 ft 14 kts 335°
2026-04-26 14:23 39.13106 117.34591 27 ft 16 kts 334°
2026-04-26 14:23 39.13210 117.34527 25 ft 17 kts 334°
2026-04-26 14:23 39.13325 117.34457 25 ft 19 kts 334°
2026-04-26 14:24 39.13448 117.34382 27 ft 20 kts 334°
2026-04-26 14:24 39.13580 117.34302 27 ft 21 kts 334°
2026-04-26 14:24 39.13717 117.34218 23 ft 22 kts 334°
2026-04-26 14:24 39.13860 117.34130 25 ft 23 kts 334°
2026-04-26 14:25 39.14007 117.34040 24 ft 23 kts 334°
2026-04-26 14:25 39.14124 117.33969 25 ft 8 kts 334°
2026-04-26 14:25 39.14159 117.33913 26 ft 8 kts 276°
2026-04-26 14:25 39.14127 117.33831 27 ft 12 kts 242°
2026-04-26 14:26 39.14108 117.33782 28 ft 0 kts 244°
2026-04-26 14:26 39.14108 117.33781 28 ft 1 kts 244°
2026-04-26 14:26 39.14099 117.33758 26 ft 6 kts 244°
2026-04-26 14:27 39.14076 117.33694 25 ft 10 kts 244°
2026-04-26 14:27 39.14034 117.33642 28 ft 5 kts 174°
2026-04-26 14:27 39.13988 117.33664 25 ft 9 kts 155°
2026-04-26 14:27 39.13869 117.33736 28 ft 36 kts 154°
2026-04-26 14:28 39.13438 117.34002 25 ft 101 kts 154°
2026-04-26 14:28 39.12638 117.34494 26 ft 152 kts 154°
2026-04-26 14:28 39.11625 117.35113 418 ft 168 kts 154°
2026-04-26 14:28 39.10537 117.35778 1037 ft 177 kts 151°
2026-04-26 14:29 39.09344 117.36527 1499 ft 204 kts 150°
2026-04-26 14:29 39.08044 117.37336 2354 ft 210 kts 150°
2026-04-26 14:29 39.06706 117.38164 3234 ft 218 kts 151°
2026-04-26 14:29 39.05308 117.39026 4020 ft 229 kts 152°
2026-04-26 14:30 39.03842 117.39930 4834 ft 238 kts 153°
2026-04-26 14:30 39.02311 117.40871 5588 ft 250 kts 153°
2026-04-26 14:30 39.00718 117.41851 6397 ft 258 kts 153°
2026-04-26 14:30 38.99091 117.42880 7251 ft 263 kts 150°
2026-04-26 14:31 38.97680 117.44376 8059 ft 268 kts 125°
2026-04-26 14:31 38.96972 117.46583 8823 ft 271 kts 94°
2026-04-26 14:31 38.97064 117.48989 9671 ft 271 kts 78°
2026-04-26 14:31 38.97378 117.51404 10450 ft 276 kts 77°
2026-04-26 14:32 38.97706 117.53851 11169 ft 282 kts 77°
2026-04-26 14:32 38.98032 117.56360 11929 ft 286 kts 78°
2026-04-26 14:32 38.98353 117.58909 12682 ft 291 kts 78°
2026-04-26 14:32 38.98674 117.61506 13429 ft 297 kts 79°
2026-04-26 14:33 38.98993 117.64147 14116 ft 302 kts 80°
2026-04-26 14:33 38.99034 117.66868 14773 ft 308 kts 98°
2026-04-26 14:33 38.98316 117.69467 15443 ft 312 kts 123°
2026-04-26 14:33 38.96847 117.71497 16103 ft 312 kts 148°
2026-04-26 14:34 38.94885 117.72612 16707 ft 308 kts 172°
2026-04-26 14:34 38.92774 117.72668 17364 ft 302 kts 195°
2026-04-26 14:34 38.90682 117.72278 17971 ft 309 kts 187°
2026-04-26 14:34 38.88524 117.72142 18539 ft 311 kts 192°
2026-04-26 14:35 38.86482 117.71339 18973 ft 308 kts 214°
2026-04-26 14:35 38.84833 117.69601 19208 ft 311 kts 237°
2026-04-26 14:35 38.83838 117.67133 19412 ft 317 kts 258°
2026-04-26 14:35 38.83670 117.64299 19648 ft 325 kts 279°
2026-04-26 14:36 38.84398 117.61515 19896 ft 337 kts 298°
2026-04-26 14:36 38.85509 117.58801 20117 ft 351 kts 296°
2026-04-26 14:36 38.86477 117.55912 20364 ft 364 kts 292°
2026-04-26 14:36 38.87394 117.52832 20621 ft 376 kts 291°
2026-04-26 14:37 38.88316 117.49642 20987 ft 385 kts 291°
2026-04-26 14:37 38.89246 117.46400 21502 ft 389 kts 290°
2026-04-26 14:37 38.90124 117.43103 22074 ft 392 kts 287°
2026-04-26 14:37 38.90702 117.39680 22613 ft 396 kts 279°
2026-04-26 14:38 38.90866 117.36118 23162 ft 401 kts 271°
2026-04-26 14:38 38.90586 117.32561 23669 ft 406 kts 262°
2026-04-26 14:38 38.89849 117.29036 24145 ft 411 kts 253°
2026-04-26 14:38 38.89117 117.26785 24470 ft 415 kts 249°
2026-04-26 14:39 38.87345 117.22370 25101 ft 417 kts 247°
2026-04-26 14:39 38.85980 117.19083 25569 ft 418 kts 247°
2026-04-26 14:39 38.84615 117.15787 26032 ft 419 kts 247°
2026-04-26 14:39 38.83252 117.12485 26522 ft 419 kts 248°
2026-04-26 14:40 38.81890 117.09178 26969 ft 420 kts 248°
2026-04-26 14:40 38.80524 117.05863 27378 ft 421 kts 248°
2026-04-26 14:40 38.79153 117.02536 27801 ft 422 kts 248°
2026-04-26 14:40 38.77781 116.99209 28203 ft 423 kts 249°
2026-04-26 14:41 38.76401 116.95868 28598 ft 425 kts 249°
2026-04-26 14:41 38.75016 116.92517 28989 ft 426 kts 249°
2026-04-26 14:41 38.73612 116.89179 29474 ft 424 kts 249°
2026-04-26 14:41 38.72205 116.85875 30089 ft 420 kts 249°
2026-04-26 14:42 38.70818 116.82615 30596 ft 416 kts 250°
2026-04-26 14:42 38.69436 116.79371 31034 ft 414 kts 250°
2026-04-26 14:42 38.67923 116.76212 31414 ft 419 kts 244°
2026-04-26 14:42 38.66082 116.73286 31816 ft 428 kts 237°
2026-04-26 14:43 38.63865 116.70668 32209 ft 439 kts 230°
2026-04-26 14:43 38.61295 116.68451 32587 ft 452 kts 221°
2026-04-26 14:43 38.58435 116.66739 32915 ft 468 kts 213°
2026-04-26 14:43 38.55252 116.65577 33262 ft 485 kts 204°
2026-04-26 14:44 38.51878 116.64921 33553 ft 493 kts 200°
2026-04-26 14:44 38.48449 116.64473 33834 ft 498 kts 198°
2026-04-26 14:44 38.44994 116.64120 34098 ft 499 kts 197°
2026-04-26 14:44 38.41524 116.63794 34359 ft 499 kts 197°
2026-04-26 14:45 38.38075 116.63462 34572 ft 498 kts 197°
2026-04-26 14:45 38.31134 116.62916 35046 ft 508 kts 190°
2026-04-26 14:45 38.27563 116.63322 35305 ft 523 kts 180°
2026-04-26 14:46 38.23981 116.64300 35580 ft 529 kts 176°
2026-04-26 14:46 38.20421 116.65516 35834 ft 531 kts 173°
2026-04-26 14:46 38.18023 116.66410 35976 ft 532 kts 172°
2026-04-26 14:46 38.13325 116.68229 36289 ft 532 kts 172°
2026-04-26 14:47 38.10937 116.69158 36454 ft 532 kts 172°
2026-04-26 14:47 38.07400 116.70535 36720 ft 531 kts 172°
2026-04-26 14:47 38.02723 116.72357 37017 ft 531 kts 172°
2026-04-26 14:48 37.96831 116.74625 37051 ft 532 kts 172°
2026-04-26 14:48 37.89722 116.77339 37050 ft 529 kts 172°
2026-04-26 14:49 37.82675 116.80010 37049 ft 529 kts 172°
2026-04-26 14:49 37.75619 116.82677 37048 ft 529 kts 172°
2026-04-26 14:50 37.68567 116.85339 37036 ft 529 kts 172°
2026-04-26 14:50 37.61506 116.88000 37045 ft 529 kts 172°
2026-04-26 14:51 37.54455 116.90654 37041 ft 529 kts 172°
2026-04-26 14:51 37.47402 116.93302 36992 ft 529 kts 172°
2026-04-26 14:52 37.40361 116.95942 37037 ft 527 kts 172°
2026-04-26 14:52 37.33336 116.98570 37036 ft 527 kts 172°
2026-04-26 14:53 37.26321 117.01268 37039 ft 530 kts 169°
2026-04-26 14:53 37.19398 117.04536 37033 ft 533 kts 166°